Location: Fort Worth, Tx
(32.7431°N, 97.3695°W)
Time: 05:21:00
(UTC-05:00)

Altair - Pass Details

Date: 09 October 2023
Orbit: 1501 x 1682 km, 47.2° (Epoch: 06 December)

Event Time Altitude Azimuth Distance (km) Brightness Sun altitude
Rises 09:17:16 0° 305° (NW) 4,886 9.5 9.1°
Reaches altitude 10° 09:20:25 10° 303° (WNW) 3,913 9.1 9.8°
Maximum altitude 09:30:19 64° 225° (SW) 1,829 8.0 11.8°
Drops below altitude 10° 09:40:16 10° 146° (SE) 3,926 10.6 13.8°
Sets 09:43:27 0° 143° (SE) 4,902 11.1 14.4°
